Location: Newark
(47.4333°N, 19.2500°E)
Time: 08:22:48
(UTC+00:00)

PRISM - Visible Passes

Search period start: 11 May 2021 00:00
Search period end: 21 May 2021 00:00
Orbit: 563 x 586 km, 98.2° (Epoch: 10 May)

Date Brightness Start Highest point End Pass type
(mag) Time Alt. Az. Time Alt. Az. Time Alt. Az.
11 May ? 01:39:25 10° NNE 01:43:20 46° E 01:47:15 10° S visible
12 May ? 01:42:31 10° NNE 01:46:29 50° E 01:50:27 10° S visible
13 May ? 01:45:38 10° NNE 01:49:38 54° E 01:53:38 10° S visible
14 May ? 01:48:45 10° NNE 01:52:47 58° ESE 01:56:49 10° S visible
15 May ? 01:51:53 10° NNE 01:55:56 62° ESE 01:59:59 10° S visible
16 May ? 01:55:00 10° NNE 01:59:04 67° ESE 02:03:08 10° S visible
17 May ? 01:58:07 10° NNE 02:02:13 72° ESE 02:06:18 10° S visible
18 May ? 02:01:14 10° NNE 02:05:20 78° ESE 02:09:27 10° S visible
19 May ? 02:04:22 10° NNE 02:08:28 83° ESE 02:12:35 10° SSW visible
20 May ? 02:07:29 10° NNE 02:11:37 89° ESE 02:15:43 10° SSW visible
